Weather History for Danville, IL

Change the Weather History Date:

Monday, July 22, 2013

  Actual Average (KLAF) Record (KLAF)
Temperature  
Mean Temperature 80 °F 74 °F  
Max Temperature 92 °F 85 °F 105 °F (1983)
Min Temperature 69 °F 64 °F 52 °F (1966)
Degree Days  
Heating Degree Days 0 0  
Month to date heating degree days 0  
Since 1 June heating degree days 22  
Since 1 July heating degree days 0  
Cooling Degree Days 16 9  
Month to date cooling degree days 218  
Year to date cooling degree days 512  
Since 1 June cooling degree days 435  
Growing Degree Days 30 (Base 50)    
Moisture  
Dew Point 69 °F    
Average Humidity 77    
Maximum Humidity 89    
Minimum Humidity 52    
Precipitation  
Precipitation 1.33 in 0.13 in 3.00 in (1957)
Month to date precipitation 2.97  
Year to date precipitation 21.09  
Sea Level Pressure  
Sea Level Pressure 29.81 in    
Wind  
Wind Speed 2 mph (ESE)    
Max Wind Speed 8 mph    
Max Gust Speed -    
Visibility 6 miles    
Events Rain    
T = Trace of Precipitation, MM = Missing Value Source: NWS Daily Summary

Daily Weather History Graph

Daily Weather History Graph

Search for Another Location

Airport:

Trip Planner

Search our weather history database for the weather conditions in past years. The results will help you decide how hot, cold, wet, or windy it might be!

Date:

Astronomy

Jul. 22, 2013 Rise Set
Actual Time 5:39 AM CDT 8:13 PM CDT
Civil Twilight 5:08 AM CDT 8:44 PM CDT
Nautical Twilight 4:29 AM CDT 9:23 PM CDT
Astronomical Twilight 3:45 AM CDT 10:07 PM CDT
Moon 7:59 PM CDT (7/22) 5:35 AM CDT (7/22)
Length of Visible Light 15h 36m
Length of Day
14h 34m
Full, 100% of the Moon is Illuminated
Jul 22
Full
Jul 22
Full
Jul 29
Last Quarter
Aug 6
New
Aug 14
First Quarter

Hourly Weather History & Observations

Time (CDT) Temp. Heat Index Dew Point Humidity Pressure Visibility Wind Dir Wind Speed Gust Speed Precip Events Conditions
12:15 AM 72.7 °F - 69.1 °F 88% 29.85 in 2.5 mi Calm Calm - N/A Rain Rain
12:35 AM 72.7 °F - 69.1 °F 88% 29.84 in 2.5 mi Calm Calm - N/A Rain Rain
12:55 AM 72.9 °F - 69.4 °F 89% 29.85 in 3.0 mi Calm Calm - N/A Rain Rain
1:15 AM 72.7 °F - 69.3 °F 89% 29.85 in 2.0 mi Calm Calm - 0.01 in Rain Heavy Rain
1:35 AM 72.5 °F - 69.1 °F 89% 29.85 in 1.5 mi Calm Calm - 0.04 in Rain Rain
1:55 AM 72.5 °F - 69.1 °F 89% 29.85 in 1.0 mi Calm Calm - 0.09 in Rain Light Rain
2:15 AM 72.7 °F - 68.9 °F 88% 29.84 in 1.2 mi East 3.5 mph - 0.12 in Rain Heavy Rain
2:35 AM 72.3 °F - 67.5 °F 85% 29.83 in 0.8 mi Calm Calm - 0.70 in Rain Heavy Rain
2:55 AM 71.2 °F - 66.4 °F 85% 29.82 in 4.0 mi ESE 3.5 mph - 0.83 in Rain Heavy Rain
3:15 AM 70.5 °F - 65.5 °F 84% 29.82 in 5.0 mi SE 4.6 mph - 0.07 in Rain Rain
3:35 AM 70.0 °F - 65.5 °F 86% 29.82 in 3.0 mi Calm Calm - 0.17 in Rain Heavy Rain
3:55 AM 70.0 °F - 64.8 °F 83% 29.82 in 3.0 mi ENE 4.6 mph - 0.27 in Rain Heavy Rain
4:15 AM 70.0 °F - 64.6 °F 83% 29.80 in 3.0 mi East 6.9 mph - 0.11 in Rain Heavy Rain
4:35 AM 70.2 °F - 64.4 °F 82% 29.81 in 5.0 mi ESE 4.6 mph - 0.13 in Rain Light Rain
4:55 AM 70.0 °F - 64.2 °F 82% 29.80 in 7.0 mi East 6.9 mph - 0.13 in Rain Rain
5:15 AM 69.8 °F - 63.7 °F 81% 29.80 in 7.0 mi ESE 4.6 mph - N/A Rain Rain
5:35 AM 69.3 °F - 64.0 °F 83% 29.82 in 10.0 mi Calm Calm - N/A Rain Rain
5:55 AM 69.6 °F - 65.3 °F 86% 29.81 in 7.0 mi Calm Calm - N/A Rain Light Rain
6:15 AM 69.6 °F - 65.1 °F 86% 29.81 in 7.0 mi NNE 3.5 mph - N/A Rain Light Rain
6:35 AM 69.8 °F - 64.8 °F 84% 29.82 in 7.0 mi NNE 4.6 mph - N/A Rain Light Rain
7:15 AM 70.2 °F - 66.2 °F 87% 29.82 in 7.0 mi North 3.5 mph - N/A Rain Light Rain
7:35 AM 70.7 °F - 66.2 °F 86% 29.82 in 7.0 mi NNE 4.6 mph - N/A Rain Rain
7:55 AM 71.1 °F - 66.2 °F 85% 29.82 in 7.0 mi NE 4.6 mph - N/A   Overcast
8:35 AM 72.0 °F - 67.1 °F 85% 29.83 in 7.0 mi ENE 4.6 mph - N/A   Overcast
9:35 AM 74.5 °F - 69.6 °F 85% 29.84 in 7.0 mi ENE 4.6 mph - N/A   Overcast
9:55 AM 76.1 °F - 71.4 °F 85% 29.83 in 10.0 mi East 6.9 mph - N/A   Overcast
10:15 AM 78.1 °F - 73.8 °F 86% 29.84 in 7.0 mi East 5.8 mph - N/A   Overcast
10:35 AM 79.3 °F - 74.8 °F 86% 29.84 in 7.0 mi East 8.1 mph - N/A   Overcast
10:55 AM 78.8 °F - 73.4 °F 83% 29.83 in 7.0 mi East 8.1 mph - N/A   Overcast
11:15 AM 80.1 °F 85.2 °F 75.4 °F 86% 29.83 in 7.0 mi East 6.9 mph - N/A   Mostly Cloudy
11:35 AM 79.7 °F - 74.7 °F 84% 29.84 in 7.0 mi East 3.5 mph - 0.01 in   Overcast
11:55 AM 79.5 °F - 73.0 °F 80% 29.85 in 7.0 mi Calm Calm - 0.01 in   Overcast
12:15 PM 79.3 °F - 72.0 °F 78% 29.84 in 7.0 mi Calm Calm - N/A   Overcast
12:35 PM 83.1 °F 91.6 °F 76.3 °F 80% 29.84 in 7.0 mi Calm Calm - N/A   Scattered Clouds
12:55 PM 86.7 °F 99.9 °F 78.4 °F 76% 29.84 in 7.0 mi Calm Calm - N/A   Scattered Clouds
1:15 PM 86.4 °F 97.8 °F 77.4 °F 74% 29.83 in 7.0 mi Calm Calm - N/A   Scattered Clouds
1:35 PM 89.1 °F 107.1 °F 80.6 °F 76% 29.81 in 7.0 mi ENE 3.5 mph - N/A   Scattered Clouds
1:55 PM 88.9 °F 107.2 °F 80.8 °F 77% 29.80 in 7.0 mi Calm Calm - N/A   Scattered Clouds
2:15 PM 90.9 °F 107.1 °F 79.2 °F 68% 29.80 in 10.0 mi Calm Calm - N/A   Scattered Clouds
2:35 PM 90.7 °F 99.0 °F 73.0 °F 56% 29.80 in 7.0 mi Calm Calm - N/A   Scattered Clouds
2:55 PM 91.6 °F 106.3 °F 78.1 °F 64% 29.80 in 7.0 mi Calm Calm - N/A   Scattered Clouds
3:15 PM 89.2 °F 95.4 °F 71.2 °F 55% 29.80 in 7.0 mi Calm Calm - N/A   Mostly Cloudy
3:35 PM 89.4 °F 96.8 °F 72.3 °F 57% 29.80 in 7.0 mi NNW 3.5 mph - N/A   Scattered Clouds
3:55 PM 87.8 °F 92.6 °F 69.8 °F 55% 29.80 in 7.0 mi Calm Calm - N/A   Scattered Clouds
4:15 PM 92.1 °F 99.9 °F 72.0 °F 52% 29.80 in 7.0 mi West 4.6 mph - N/A   Scattered Clouds
4:35 PM 91.0 °F 97.6 °F 71.1 °F 52% 29.80 in 7.0 mi SW 5.8 mph - N/A   Scattered Clouds
4:55 PM 89.2 °F 94.9 °F 70.7 °F 54% 29.80 in 7.0 mi WSW 4.6 mph - N/A   Clear
5:15 PM 89.6 °F 95.7 °F 71.1 °F 54% 29.79 in 7.0 mi Calm Calm - N/A   Clear
5:35 PM 88.9 °F 94.7 °F 70.9 °F 55% 29.79 in 7.0 mi Calm Calm - N/A   Clear
5:55 PM 87.6 °F 92.7 °F 70.0 °F 56% 29.78 in 7.0 mi SW 3.5 mph - N/A   Clear
6:15 PM 86.9 °F 92.1 °F 70.3 °F 58% 29.77 in 7.0 mi SW 3.5 mph - N/A   Scattered Clouds
6:35 PM 87.1 °F 91.6 °F 69.6 °F 56% 29.77 in 7.0 mi West 4.6 mph - N/A   Scattered Clouds
6:55 PM 85.6 °F 90.1 °F 69.6 °F 59% 29.78 in 7.0 mi WSW 4.6 mph - N/A   Clear
7:15 PM 83.8 °F 88.1 °F 69.8 °F 63% 29.77 in 7.0 mi SW 3.5 mph - N/A   Clear
7:35 PM 82.4 °F 86.1 °F 69.4 °F 65% 29.77 in 7.0 mi SW 3.5 mph - N/A   Clear
7:55 PM 79.7 °F - 68.2 °F 68% 29.78 in 5.0 mi Calm Calm - N/A   Haze
8:15 PM 76.5 °F - 66.9 °F 72% 29.77 in 7.0 mi South 3.5 mph - N/A   Clear
8:35 PM 74.3 °F - 65.5 °F 74% 29.78 in 7.0 mi Calm Calm - N/A   Clear
8:55 PM 73.0 °F - 65.3 °F 77% 29.79 in 7.0 mi Calm Calm - N/A   Clear
9:15 PM 72.9 °F - 65.8 °F 79% 29.79 in 7.0 mi SSW 3.5 mph - N/A   Clear
9:35 PM 71.8 °F - 64.9 °F 79% 29.80 in 7.0 mi SSW 3.5 mph - N/A   Clear
9:55 PM 71.6 °F - 65.5 °F 81% 29.80 in 7.0 mi SSW 3.5 mph - N/A   Clear
10:15 PM 71.2 °F - 65.7 °F 82% 29.80 in 7.0 mi Calm Calm - N/A   Clear
10:35 PM 71.2 °F - 65.8 °F 83% 29.80 in 7.0 mi Calm Calm - N/A   Clear
10:55 PM 71.1 °F - 66.2 °F 85% 29.80 in 7.0 mi SSW 3.5 mph - N/A   Clear
11:15 PM 70.9 °F - 66.0 °F 85% 29.81 in 7.0 mi SW 3.5 mph - N/A   Clear
11:35 PM 70.7 °F - 65.8 °F 85% 29.82 in 5.0 mi Calm Calm - N/A   Haze
11:55 PM 70.2 °F - 65.3 °F 85% 29.83 in 7.0 mi Calm Calm - N/A   Clear